Location: Delta State University
(33.7460°N, 90.7320°W)
Time: 17:40:53
(UTC-05:00)

Iridium 13 - Visible Passes

Search period start: 30 July 2016 00:00
Search period end: 09 August 2016 00:00
Orbit: 776 x 779 km, 86.4° (Epoch: 30 July)

Date Brightness Start Highest point End Pass type
(mag) Time Alt. Az. Time Alt. Az. Time Alt. Az.
30 Jul 7.5 00:07:11 10° NNE 00:09:19 23° NNE 00:09:19 23° NNE visible
30 Jul 8.2 01:49:24 10° NW 01:49:46 11° NW 01:49:46 11° NW visible
30 Jul 7.7 23:34:20 10° NNE 23:35:49 16° NE 23:35:49 16° NE visible
31 Jul 7.8 01:14:41 10° NNW 01:16:17 18° NW 01:16:17 18° NW visible
01 Aug 7.5 00:40:41 10° N 00:42:48 24° NNW 00:42:48 24° NNW visible
02 Aug 7.4 00:07:07 10° N 00:09:20 26° N 00:09:20 26° N visible
02 Aug 7.5 23:33:57 10° NNE 23:35:52 21° NNE 23:35:52 21° NNE visible
03 Aug 8.1 01:15:22 10° NW 01:16:20 14° NW 01:16:20 14° NW visible
03 Aug 7.8 23:01:23 10° NE 23:02:24 13° NE 23:02:24 13° NE visible
04 Aug 7.7 00:41:00 10° NNW 00:42:52 21° NNW 00:42:52 21° NNW visible
05 Aug 7.4 00:07:11 10° N 00:09:24 26° N 00:09:24 26° N visible
05 Aug 7.4 23:33:46 10° N 23:35:57 25° NNE 23:35:57 25° NNE visible
06 Aug 7.6 23:00:48 10° NNE 23:02:30 18° NE 23:02:30 18° NE visible
07 Aug 8.0 00:41:31 10° NNW 00:42:58 17° NW 00:42:58 17° NW visible
07 Aug 7.9 22:28:41 10° NE 22:29:04 11° NE 22:29:04 11° NE visible
08 Aug 7.6 00:07:24 10° NNW 00:09:32 24° NNW 00:09:32 24° NNW visible
08 Aug 7.3 23:33:45 10° N 23:36:06 27° N 23:36:06 27° N visible
